Hutchinson, MN

3:44 PM CDT on September 29, 2016 (GMT -0500)
Hutchinson Municipal-Butler

Weather History for KHCD - December, 2012

Change the Weather History Date:

Sunday, December 16, 2012

  Actual Average Record
Temperature  
Mean Temperature 24 °F -  
Max Temperature 31 °F 27 °F 51 °F (1959)
Min Temperature 16 °F 8 °F -18 °F (1963)
Degree Days  
Heating Degree Days 42    
Moisture  
Dew Point 21 °F    
Average Humidity 97    
Maximum Humidity 100    
Minimum Humidity 92    
Precipitation  
Precipitation 0.00 in - - ()
Sea Level Pressure  
Sea Level Pressure 29.73 in    
Wind  
Wind Speed 11 mph (WNW)    
Max Wind Speed 16 mph    
Max Gust Speed 20 mph    
Visibility 8 miles    
Events      
Averages and records for this station are not official NWS values.
T = Trace of Precipitation, MM = Missing Value Source: NWS Daily Summary

Daily Weather History Graph

Daily Weather History Graph

Search for Another Location

Airport or City:

Trip Planner

Search our weather history database for the weather conditions in past years. The results will help you decide how hot, cold, wet, or windy it might be!

Date:

Astronomy

Dec. 16, 2012 Rise Set
Actual Time 7:49 AM CST 4:37 PM CST
Civil Twilight 7:15 AM CST 5:11 PM CST
Nautical Twilight 6:38 AM CST 5:48 PM CST
Astronomical Twilight 6:02 AM CST 6:23 PM CST
Moon 10:15 AM CST (12/16) 9:01 PM CST (12/16)
Length of Visible Light 9h 55m
Length of Day
8h 47m
Waxing Crescent, 16% of the Moon is Illuminated
Dec 16
Waxing Crescent
Dec 19
First Quarter
Dec 28
Full
Jan 4
Last Quarter
Jan 11
New

Hourly Weather History & Observations

Time (CST) Temp. Windchill Dew Point Humidity Pressure Visibility Wind Dir Wind Speed Gust Speed Precip Events Conditions
12:08 AM - - - N/A% 29.58 in 3.0 mi WNW 11.5 mph - N/A   Overcast
12:49 AM 31.8 °F 23.3 °F 32.0 °F 100% 29.59 in 2.5 mi WNW 10.4 mph 16.1 mph N/A   Overcast
1:08 AM 31.8 °F 23.9 °F 32.0 °F 100% 29.59 in 3.0 mi WNW 9.2 mph - N/A   Overcast
1:29 AM 30.6 °F 21.2 °F 30.7 °F 100% 29.60 in 4.0 mi WNW 11.5 mph - N/A   Overcast
1:48 AM 29.7 °F 21.3 °F 29.8 °F 100% 29.61 in 4.0 mi WNW 9.2 mph - N/A   Overcast
2:09 AM 29.3 °F 20.2 °F 29.5 °F 100% 29.61 in 4.0 mi WNW 10.4 mph - N/A   Overcast
2:29 AM 29.3 °F 18.2 °F 29.3 °F 100% 29.62 in 5.0 mi WNW 15.0 mph - N/A   Overcast
2:48 AM 26.6 °F 14.3 °F 26.6 °F 100% 29.64 in 5.0 mi WNW 16.1 mph - N/A   Overcast
3:09 AM 26.6 °F 14.7 °F 26.6 °F 100% 29.65 in 5.0 mi WNW 15.0 mph - N/A   Overcast
3:49 AM 24.4 °F 13.5 °F 24.3 °F 99% 29.65 in 5.0 mi WNW 11.5 mph - N/A   Overcast
4:08 AM 24.3 °F 12.7 °F 23.9 °F 99% 29.66 in 5.0 mi WNW 12.7 mph - N/A   Overcast
4:28 AM 23.0 °F 10.6 °F 22.8 °F 99% 29.66 in 5.0 mi WNW 13.8 mph - N/A   Overcast
4:48 AM 21.7 °F 8.5 °F 21.2 °F 98% 29.66 in 4.0 mi WNW 15.0 mph 19.6 mph N/A   Overcast
5:09 AM 20.3 °F 7.7 °F 20.1 °F 99% 29.66 in 5.0 mi WNW 12.7 mph - N/A   Overcast
5:29 AM 19.4 °F 6.6 °F 19.2 °F 99% 29.67 in 3.0 mi WNW 12.7 mph - N/A   Overcast
5:49 AM 19.2 °F 6.4 °F 19.0 °F 99% 29.68 in 4.0 mi WNW 12.7 mph - N/A   Overcast
6:08 AM 19.2 °F 4.7 °F 18.9 °F 98% 29.69 in 4.0 mi WNW 16.1 mph - N/A   Overcast
6:29 AM 19.2 °F 7.0 °F 18.9 °F 98% 29.69 in 5.0 mi WNW 11.5 mph - N/A   Overcast
6:48 AM 19.2 °F 7.7 °F 18.9 °F 98% 29.69 in 4.0 mi WNW 10.4 mph - N/A   Overcast
7:09 AM 19.2 °F 6.4 °F 18.9 °F 98% 29.69 in 4.0 mi WNW 12.7 mph - N/A   Overcast
7:28 AM 19.2 °F 6.4 °F 18.9 °F 98% 29.69 in 5.0 mi WNW 12.7 mph - N/A   Overcast
7:49 AM 19.4 °F 7.2 °F 19.0 °F 98% 29.70 in 3.0 mi WNW 11.5 mph - N/A   Overcast
8:08 AM 19.2 °F 4.7 °F 18.9 °F 98% 29.71 in 5.0 mi WNW 16.1 mph - N/A   Overcast
8:29 AM 19.2 °F 5.3 °F 18.5 °F 97% 29.71 in 5.0 mi WNW 15.0 mph - N/A   Overcast
8:48 AM 19.2 °F 7.0 °F 18.5 °F 97% 29.72 in 5.0 mi WNW 11.5 mph - N/A   Overcast
9:09 AM 18.9 °F 5.9 °F 18.3 °F 98% 29.72 in 5.0 mi WNW 12.7 mph - N/A   Overcast
9:28 AM 17.2 °F 2.7 °F 16.5 °F 97% 29.73 in 7.0 mi WNW 15.0 mph - N/A   Overcast
9:49 AM 16.7 °F 1.5 °F 15.8 °F 96% 29.74 in 10.0 mi WNW 16.1 mph - N/A   Overcast
10:09 AM 16.7 °F 2.6 °F 15.8 °F 96% 29.75 in 10.0 mi WNW 13.8 mph - N/A   Overcast
10:28 AM 17.1 °F 4.3 °F 16.0 °F 96% 29.75 in 10.0 mi WNW 11.5 mph - N/A   Overcast
10:48 AM 18.0 °F 4.8 °F 16.7 °F 95% 29.76 in 10.0 mi WNW 12.7 mph - N/A   Overcast
11:09 AM 19.2 °F 7.7 °F 17.6 °F 93% 29.75 in 10.0 mi WNW 10.4 mph - N/A   Overcast
11:28 AM 19.2 °F 7.0 °F 17.6 °F 93% 29.75 in 10.0 mi WNW 11.5 mph - N/A   Overcast
11:49 AM 19.2 °F 6.4 °F 17.6 °F 93% 29.74 in 7.0 mi WNW 12.7 mph - N/A   Overcast
12:08 PM 19.2 °F 7.0 °F 17.4 °F 93% 29.74 in 7.0 mi WNW 11.5 mph - N/A   Overcast
12:29 PM 19.2 °F 5.3 °F 17.4 °F 93% 29.74 in 7.0 mi WNW 15.0 mph - N/A   Overcast
12:49 PM 19.4 °F 5.5 °F 17.4 °F 92% 29.73 in 7.0 mi WNW 15.0 mph - N/A   Overcast
1:08 PM 19.4 °F 6.6 °F 17.6 °F 93% 29.73 in 7.0 mi WNW 12.7 mph - N/A   Overcast
1:29 PM 19.4 °F 7.9 °F 17.6 °F 93% 29.73 in 7.0 mi WNW 10.4 mph - N/A   Overcast
1:48 PM 19.6 °F 6.2 °F 17.8 °F 93% 29.74 in 7.0 mi WNW 13.8 mph - N/A   Overcast
2:09 PM 19.6 °F 8.1 °F 18.0 °F 93% 29.73 in 10.0 mi WNW 10.4 mph - N/A   Overcast
2:29 PM 20.3 °F 8.3 °F 18.9 °F 94% 29.73 in 10.0 mi WNW 11.5 mph 17.3 mph N/A   Overcast
2:48 PM 20.3 °F 9.0 °F 19.2 °F 96% 29.73 in 10.0 mi WNW 10.4 mph - N/A   Overcast
3:09 PM 20.7 °F 8.8 °F 19.4 °F 95% 29.74 in 10.0 mi WNW 11.5 mph - N/A   Overcast
3:29 PM 20.8 °F 10.4 °F 19.4 °F 94% 29.75 in 10.0 mi WNW 9.2 mph - N/A   Overcast
3:48 PM 21.2 °F 10.1 °F 20.1 °F 96% 29.75 in 10.0 mi WNW 10.4 mph - N/A   Overcast
4:08 PM 21.7 °F 12.3 °F 20.8 °F 96% 29.75 in 10.0 mi WNW 8.1 mph - N/A   Overcast
4:28 PM 21.7 °F 10.8 °F 20.8 °F 96% 29.75 in 10.0 mi WNW 10.4 mph 16.1 mph N/A   Overcast
4:49 PM 21.7 °F 10.2 °F 20.8 °F 96% 29.76 in 10.0 mi WNW 11.5 mph - N/A   Overcast
5:08 PM 21.7 °F 10.2 °F 20.8 °F 96% 29.76 in 10.0 mi WNW 11.5 mph - N/A   Overcast
5:29 PM 21.7 °F 10.2 °F 20.8 °F 96% 29.77 in 10.0 mi WNW 11.5 mph - N/A   Overcast
5:42 PM 21.7 °F 12.3 °F 20.8 °F 96% 29.77 in 10.0 mi WNW 8.1 mph - N/A   Overcast
6:10 PM 21.2 °F 10.9 °F 21.2 °F 100% 29.78 in 10.0 mi WNW 9.2 mph - N/A   Overcast
6:30 PM 21.2 °F 11.7 °F 21.2 °F 100% 29.78 in 10.0 mi WNW 8.1 mph - N/A   Overcast
6:50 PM 21.2 °F 9.5 °F 21.2 °F 100% 29.78 in 10.0 mi WNW 11.5 mph - N/A   Overcast
7:10 PM 21.2 °F 10.1 °F 21.2 °F 100% 29.78 in 10.0 mi WNW 10.4 mph - N/A   Overcast
7:23 PM 21.7 °F 10.8 °F 20.8 °F 96% 29.79 in 10.0 mi WNW 10.4 mph - N/A   Overcast
7:29 PM 21.7 °F 10.8 °F 20.8 °F 96% 29.79 in 10.0 mi WNW 10.4 mph - N/A   Overcast
7:48 PM 21.7 °F 12.3 °F 20.8 °F 96% 29.79 in 10.0 mi WNW 8.1 mph - N/A   Overcast
8:09 PM 21.7 °F 11.5 °F 20.8 °F 96% 29.79 in 10.0 mi WNW 9.2 mph - N/A   Overcast
8:27 PM 21.7 °F 11.5 °F 21.0 °F 97% 29.79 in 10.0 mi WNW 9.2 mph - N/A   Overcast
8:49 PM 21.7 °F 12.3 °F 21.0 °F 97% 29.79 in 10.0 mi WNW 8.1 mph - N/A   Overcast
9:08 PM 21.7 °F 12.3 °F 21.0 °F 97% 29.79 in 10.0 mi WNW 8.1 mph - N/A   Overcast
9:29 PM 21.7 °F 11.5 °F 21.0 °F 97% 29.80 in 10.0 mi WNW 9.2 mph - N/A   Overcast
9:48 PM 21.7 °F 14.3 °F 21.0 °F 97% 29.81 in 10.0 mi WNW 5.8 mph - N/A   Overcast
10:09 PM 21.7 °F 13.2 °F 21.0 °F 97% 29.80 in 10.0 mi WNW 6.9 mph - N/A   Overcast
10:29 PM 21.7 °F 14.3 °F 21.0 °F 97% 29.80 in 10.0 mi WNW 5.8 mph - N/A   Overcast
10:48 PM 21.7 °F 17.0 °F 21.0 °F 97% 29.80 in 10.0 mi WNW 3.5 mph - N/A   Overcast
11:09 PM 21.7 °F 12.3 °F 21.0 °F 97% 29.80 in 10.0 mi NW 8.1 mph - N/A   Overcast
11:29 PM 20.8 °F 16.0 °F 20.1 °F 97% 29.80 in 10.0 mi North 3.5 mph - N/A   Overcast
11:49 PM 21.0 °F 13.4 °F 20.3 °F 97% 29.79 in 10.0 mi North 5.8 mph - N/A   Overcast